User: anonymous   Login
Location: Copetón
(10.0045°N, 67.8273°W)
Time: 22:27:00
(UTC+00:00)
Language:

STARLINK-31535 - Orbit

View from above orbital plane
View from above orbital plane
View from above satellite
View from above satellite

Ground track
Ground track

The orbit data is extracted from the following two-line orbital elements,

1 59504C 24071W   24170.76506944  .00016150  00000+0  38573-3 0  1704
2 59504  43.0012 331.2117 0001278 288.0025   3.8638 15.40653008    17
Epoch (UTC): 18 June 2024 18:21:42
Eccentricity: 0.0001278
inclination: 43.0012°
perigee height: 443 km
apogee height: 445 km
right ascension of ascending node: 331.2117°
argument of perigee: 288.0025°
revolutions per day: 15.40653008
mean anomaly at epoch: 3.8638°
orbit number at epoch: 1

The dashed part of the orbit path shows where the satellite is in the earth's shadow,  

DLR